This demonstration page uses our WeatherBlox Daily Observations layout. Learn more.

Hourly Observations for February 20, 2020

Temp ( °F °C ) Dew Point ( °F °C ) Humidity (%) Winds ( mph kmh ) Pressure ( in mb ) Visibility ( mi km ) Precip ( " mm )
1:54 am 01:54 Clear 11 -11.7 4 -15.6 73 73 N 7 11 30.82 1044 10 16.0934 0 0
2:54 am 02:54 Clear 10 -12.2 4 -15.6 76 76 N 8 13 30.83 1044 10 16.0934 0 0
3:54 am 03:54 Clear 9 -12.8 4 -15.6 80 80 N 9 15 30.82 1044 10 16.0934 0 0
4:54 am 04:54 Clear 4 -15.6 0 -17.8 83 83 N 5 7 30.84 1045 10 16.0934 0 0
5:54 am 05:54 Clear 5 -15 0 -17.8 79 79 NNW 6 9 30.86 1045 10 16.0934 0 0
6:54 am 06:54 Clear 3 -16.1 -2 -18.9 79 79 NNW 6 9 30.87 1046 10 16.0934 0 0
7:54 am 07:54 Sunny 3 -16.1 -2 -18.9 79 79 N 5 7 30.89 1046 10 16.0934 0 0
8:54 am 08:54 Sunny 9 -12.8 2 -16.7 73 73 N 3 6 30.9 1047 10 16.0934 0 0
9:54 am 09:54 Sunny 13 -10.6 3 -16.1 64 64 NW 3 6 30.91 1047 10 16.0934 0 0
10:54 am 10:54 Sunny 15 -9.4 6 -14.4 67 67 Calm 30.91 1047 10 16.0934 0 0
11:54 am 11:54 Sunny 20 -6.7 8 -13.3 60 60 S 5 7 30.89 1046 10 16.0934 0 0
12:54 pm 12:54 Sunny 24 -4.4 10 -12.2 55 55 VRB 5 7 30.85 1045 10 16.0934 0 0
1:54 pm 13:54 Sunny 27 -2.8 11 -11.7 51 51 WNW 6 9 30.82 1044 10 16.0934 0 0
2:54 pm 14:54 Sunny 27 -2.8 13 -10.6 55 55 W 3 6 30.8 1043 10 16.0934 0 0
3:54 pm 15:54 Sunny 28 -2.2 13 -10.6 53 53 W 8 13 30.79 1043 10 16.0934 0 0
4:54 pm 16:54 Sunny 28 -2.2 14 -10 56 56 SW 8 13 30.78 1042 10 16.0934 0 0
5:54 pm 17:54 Sunny 27 -2.8 15 -9.4 61 61 WSW 7 11 30.77 1042 10 16.0934 0 0
6:54 pm 18:54 Clear 24 -4.4 14 -10 65 65 S 5 7 30.77 1042 10 16.0934 0 0
7:54 pm 19:54 Clear 21 -6.1 14 -10 74 74 S 5 7 30.76 1042 10 16.0934 0 0
8:54 pm 20:54 Clear 21 -6.1 14 -10 74 74 S 5 7 30.75 1041 10 16.0934 0 0
9:54 pm 21:54 Clear 20 -6.7 13 -10.6 74 74 SSE 5 7 30.74 1041 10 16.0934 0 0
10:54 pm 22:54 Clear 17 -8.3 12 -11.1 80 80 S 5 7 30.73 1041 10 16.0934 0 0
11:54 pm 23:54 Clear 21 -6.1 13 -10.6 71 71 SSW 8 13 30.71 1040 10 16.0934 0 0

Powered by AerisWeather